Wind_Speed
16 16 16 16 16 16 16 16 16 16 16 16 16 16 17 17 17 18 18 18 19 20 20 20 20 19 20 20 20 20 21 21 21 21 22 23 23 23 23 23 22 22 22
17 18 18 18 18 17 17 17 17 17 18 18 18 18 19 19 19 20 20 21 21 21 22 22 22 22 22 22 22 22 22 22 22 22 23 23 24 24 24 24 24 24 23
18 18 19 19 19 19 18 19 19 19 19 20 20 19 20 21 22 22 22 22 22 22 23 23 23 24 24 24 24 24 24 24 24 24 24 24 25 25 26 25 25 24 24
19 19 19 19 19 19 20 20 20 20 20 21 21 21 22 22 23 23 24 24 24 24 24 24 25 25 26 26 26 25 26 26 26 25 25 25 25 26 27 26 25 25 25
19 20 20 19 19 20 21 22 22 22 22 22 23 23 23 23 23 23 24 25 25 25 26 26 27 27 27 27 27 28 27 27 27 27 27 27 27 27 27 27 27 27 27
20 20 20 19 20 21 22 22 22 22 23 24 24 24 24 23 23 24 25 26 26 27 27 27 27 27 28 28 27 28 28 27 27 28 29 28 28 28 27 27 27 27 27
21 21 20 20 21 22 23 23 22 23 23 24 23 23 23 24 24 25 26 25 26 27 27 27 26 27 28 28 29 29 29 29 29 29 29 29 29 28 27 27 26 27 27
23 22 21 21 21 22 23 23 22 23 23 23 23 23 24 24 25 26 26 26 26 26 26 27 27 28 28 29 29 29 30 30 30 29 29 29 29 29 28 27 28 27 27
24 23 23 22 22 22 23 23 24 24 24 24 24 24 25 25 25 25 26 26 26 27 27 27 27 28 28 29 29 30 30 30 29 30 29 28 29 29 29 28 27 27 27
24 24 23 23 23 23 23 24 25 25 25 25 26 26 26 26 26 26 26 26 26 26 26 26 26 27 27 28 28 29 29 29 28 28 27 27 27 27 27 27 27 27 27
23 23 22 23 24 23 23 24 24 25 25 26 26 26 27 27 26 26 26 26 26 26 26 26 26 26 26 26 27 28 28 27 27 27 27 27 27 27 27 27 27 28 27
24 24 23 23 23 23 24 24 24 24 25 26 26 26 27 27 27 27 27 26 26 26 26 26 26 26 25 26 26 25 26 26 27 27 27 27 27 26 26 27 28 28 26
26 25 25 24 24 24 25 25 24 25 26 26 27 27 27 27 27 27 27 27 27 26 26 26 26 25 25 25 25 25 25 25 26 26 26 26 26 26 26 26 26 27 26
26 25 26 26 25 25 25 25 25 26 26 27 27 27 27 26 27 27 27 27 26 26 26 25 25 25 25 25 25 25 25 25 25 26 26 26 26 26 26 26 27 27 27
28 27 26 26 26 26 26 25 25 26 27 27 26 26 26 27 27 27 26 26 26 26 25 25 26 26 26 26 25 25 25 25 26 26 26 26 26 26 27 27 27 27 27
29 28 27 26 27 26 26 26 25 26 26 26 26 26 27 27 27 27 26 26 26 26 25 25 25 25 26 26 26 26 26 26 26 26 26 26 26 27 27 26 26 26 26
28 28 27 27 27 27 26 26 27 27 27 26 26 26 26 26 26 26 26 26 26 26 26 25 25 25 26 26 27 27 27 27 27 27 26 26 27 27 27 27 26 26 26
29 28 28 28 28 27 27 27 27 27 27 26 26 26 26 26 26 26 26 26 26 25 25 25 25 26 26 27 27 28 27 28 28 27 27 27 27 27 27 27 27 27 27
29 29 29 28 28 27 28 27 27 27 27 26 26 25 25 26 26 26 25 25 25 25 25 26 26 26 26 27 28 28 28 28 28 28 27 27 27 27 27 28 28 28 28
29 29 29 29 28 28 28 27 27 28 27 26 26 26 26 27 26 26 26 26 26 26 26 27 28 28 28 28 28 28 28 28 28 28 28 28 28 28 27 27 26 26 26
30 30 29 28 27 27 27 27 27 28 27 27 27 27 27 27 27 27 27 27 27 27 27 28 29 29 29 30 29 28 28 27 27 28 28 27 26 26 26 25 25 26 26
29 28 28 28 28 27 28 27 27 28 27 27 28 27 27 27 27 27 27 27 28 28 29 29 29 29 30 29 29 28 28 28 28 28 29 28 27 27 26 26 26 26 26
29 28 28 28 29 29 28 28 28 27 27 28 28 28 28 27 27 27 27 28 28 28 28 29 29 28 28 28 27 27 27 28 28 28 28 28 28 27 27 26 26 25 25
29 29 29 28 28 29 29 28 27 26 27 27 27 27 27 27 27 27 28 28 28 28 28 29 28 28 28 28 27 27 27 28 28 28 27 27 27 27 27 26 26 25 26
28 28 28 27 27 27 27 28 27 27 27 27 27 27 27 26 26 27 28 28 28 28 28 29 28 28 28 28 27 27 27 27 27 26 26 26 26 26 26 26 26 26 26
28 28 28 27 27 27 27 27 27 27 27 27 27 27 26 27 27 28 28 28 27 27 27 27 27 27 28 28 27 28 28 28 27 27 26 26 26 26 26 26 26 25 25
Wind_Direction
277 279 276 277 277 278 280 281 285 287 290 292 291 292 293 294 295 294 293 293 291 290 290 289 290 290 290 289 289 288 286 285 283 281 282 283 283 283 283 283 283 281 281
276 278 280 278 278 276 279 282 285 286 289 291 291 291 291 294 293 292 293 291 292 288 287 288 288 288 288 287 287 287 287 286 285 284 284 283 283 283 282 280 280 279 279
274 278 281 279 280 278 280 283 283 283 285 288 290 290 291 293 292 291 291 290 290 289 287 286 286 285 285 286 286 285 285 285 285 284 285 284 283 282 281 280 278 277 277
276 279 283 281 279 278 280 282 282 284 285 287 289 289 292 293 293 291 290 288 288 288 286 284 283 283 284 284 284 284 284 283 284 284 284 285 286 285 281 279 278 276 277
276 279 281 281 278 279 280 281 284 287 288 289 291 291 293 293 291 292 291 288 288 288 286 283 282 281 281 282 282 282 282 282 282 283 283 284 286 285 283 279 277 276 277
276 278 279 281 281 280 281 282 284 288 290 290 291 291 292 293 291 290 290 289 288 288 287 285 282 281 280 280 282 282 283 282 282 282 283 283 285 284 283 281 279 277 277
275 278 279 280 281 283 283 282 284 289 291 290 291 292 293 293 293 291 289 291 293 291 288 286 285 283 281 281 281 282 281 282 282 283 283 283 284 284 284 284 282 280 279
274 278 278 280 281 284 284 283 285 288 290 290 290 293 294 294 294 294 294 293 293 294 292 288 286 285 282 282 282 282 283 283 284 284 284 283 283 283 284 284 282 280 279
274 275 277 281 281 284 284 283 285 288 288 289 290 292 292 293 294 294 296 295 294 294 294 293 290 287 284 282 281 281 282 283 284 286 286 286 285 284 283 283 282 280 280
273 275 277 280 282 283 283 285 287 287 287 287 289 290 291 292 293 293 294 295 295 295 295 294 293 291 287 285 284 284 284 284 285 286 287 288 286 285 283 282 282 280 280
273 277 279 282 284 283 284 286 287 289 289 289 290 290 291 292 291 291 292 292 293 294 294 293 294 294 291 288 286 285 285 286 288 288 287 288 288 286 285 283 283 284 283
273 277 278 281 282 282 284 286 288 290 291 291 291 292 293 292 292 291 292 292 293 294 295 295 295 295 293 289 288 288 287 287 287 288 289 288 288 288 288 286 286 286 283
272 275 277 279 281 281 283 286 288 290 292 293 292 292 292 291 290 290 290 291 292 293 295 295 295 295 293 291 290 290 290 291 290 290 290 290 289 288 289 289 289 288 285
272 274 275 278 280 280 281 285 288 290 292 295 293 291 292 291 291 292 291 292 293 294 296 295 294 293 293 293 291 290 290 291 291 292 291 290 289 289 289 288 289 291 289
270 272 273 275 277 278 280 282 286 290 292 294 294 292 292 293 292 291 291 292 294 295 295 295 293 293 292 292 291 291 291 291 292 292 292 290 288 288 289 289 289 290 289
268 271 273 275 276 277 279 282 285 289 292 293 293 293 293 294 293 291 290 291 293 294 294 294 295 295 295 293 291 290 290 290 291 292 290 289 289 289 288 288 289 289 289
267 270 272 275 275 276 278 281 285 288 292 294 294 294 294 294 294 292 290 291 292 291 292 293 293 294 295 295 292 291 289 288 290 291 289 288 289 290 289 288 289 289 288
266 268 271 274 273 274 276 279 283 287 291 294 295 294 294 294 293 292 291 292 293 293 293 293 293 294 295 295 293 292 290 288 288 289 290 289 288 289 288 287 287 287 287
264 266 269 272 271 272 274 277 281 286 289 292 293 294 294 294 293 292 292 293 294 294 294 294 295 295 296 296 294 292 290 288 288 288 288 288 288 289 289 288 288 288 288
264 266 269 270 271 271 273 276 281 284 287 289 291 292 292 292 292 292 293 294 294 294 294 294 295 295 296 297 296 292 289 288 289 288 288 287 288 289 288 287 288 290 291
264 265 268 271 271 272 275 278 281 283 285 288 289 290 290 290 290 290 292 292 293 294 294 295 295 295 296 297 295 292 291 290 290 289 288 288 288 288 288 289 289 289 291
263 265 267 270 271 274 278 280 282 283 284 286 288 288 288 289 289 291 292 293 295 296 296 296 296 295 295 295 294 293 291 291 291 289 287 285 283 285 286 286 287 287 288
262 264 267 270 271 273 277 280 282 284 284 284 286 287 287 289 290 291 292 293 295 298 299 299 298 296 295 296 296 295 294 293 292 290 287 285 284 283 283 285 287 287 287
261 264 265 268 272 274 275 278 280 282 284 284 285 286 287 288 290 291 292 293 295 296 299 300 298 297 296 297 297 296 296 295 293 292 289 287 286 285 284 285 285 286 287
260 263 265 267 270 273 275 278 280 282 282 284 286 288 288 288 290 292 293 294 296 296 298 298 297 296 297 298 298 297 298 298 296 293 291 290 288 286 284 284 284 285 286
260 262 264 267 269 271 274 277 279 280 281 284 286 288 288 289 290 292 294 295 295 295 297 298 298 299 298 298 297 297 297 296 296 294 292 291 289 287 285 283 283 285 286
Height
5894 5893 5892 5891 5890 5889 5888 5887 5885 5884 5883 5881 5879 5878 5876 5875 5874 5873 5871 5870 5869 5868 5866 5865 5864 5862 5861 5859 5858 5856 5854 5853 5852 5851 5849 5848 5846 5845 5844 5842 5841 5840 5840
5890 5889 5888 5887 5886 5885 5883 5882 5881 5880 5878 5876 5875 5873 5872 5870 5869 5867 5866 5865 5863 5862 5861 5859 5858 5857 5855 5854 5852 5850 5849 5847 5846 5844 5843 5842 5840 5839 5837 5836 5835 5834 5834
5885 5884 5883 5882 5881 5880 5879 5877 5876 5875 5873 5872 5870 5868 5866 5865 5863 5862 5860 5859 5857 5856 5854 5853 5852 5851 5849 5847 5846 5844 5843 5841 5840 5838 5837 5835 5834 5832 5831 5830 5828 5828 5827
5880 5879 5878 5877 5876 5875 5874 5872 5871 5869 5868 5866 5864 5863 5861 5859 5857 5856 5854 5853 5851 5849 5848 5846 5845 5844 5842 5841 5840 5838 5836 5835 5833 5832 5830 5828 5827 5825 5823 5822 5822 5821 5820
5875 5874 5873 5872 5871 5870 5868 5867 5866 5864 5862 5861 5859 5857 5855 5853 5851 5849 5848 5846 5845 5843 5841 5839 5838 5837 5835 5834 5832 5831 5829 5828 5826 5825 5823 5821 5820 5818 5816 5815 5814 5814 5813
5869 5868 5867 5866 5865 5864 5863 5861 5860 5858 5856 5855 5852 5850 5848 5847 5845 5843 5841 5839 5837 5836 5834 5832 5831 5829 5828 5827 5825 5823 5822 5820 5819 5817 5815 5814 5812 5810 5809 5807 5806 5806 5805
5864 5863 5862 5861 5860 5858 5857 5855 5854 5852 5850 5848 5846 5844 5842 5840 5838 5836 5834 5832 5830 5828 5826 5824 5823 5821 5820 5819 5817 5816 5814 5812 5811 5809 5808 5806 5805 5803 5802 5800 5799 5798 5797
5858 5857 5856 5855 5853 5852 5851 5849 5847 5846 5844 5842 5840 5838 5836 5834 5832 5829 5827 5825 5823 5820 5818 5817 5815 5813 5812 5810 5809 5807 5806 5804 5803 5801 5800 5798 5797 5795 5794 5792 5791 5790 5789
5852 5851 5850 5848 5847 5846 5845 5843 5841 5840 5837 5835 5833 5831 5829 5828 5825 5823 5820 5818 5816 5813 5811 5809 5807 5806 5804 5802 5800 5799 5798 5796 5795 5793 5792 5790 5788 5787 5786 5785 5783 5782 5781
5845 5844 5843 5842 5841 5840 5838 5837 5835 5833 5831 5829 5827 5825 5823 5821 5819 5816 5813 5811 5809 5807 5804 5802 5800 5798 5796 5794 5792 5791 5789 5788 5787 5785 5783 5782 5780 5779 5778 5777 5776 5775 5774
5838 5838 5837 5836 5835 5833 5832 5830 5829 5826 5825 5823 5820 5818 5816 5814 5811 5809 5806 5804 5802 5799 5797 5795 5793 5790 5788 5786 5784 5783 5782 5780 5779 5777 5775 5774 5773 5771 5770 5769 5768 5767 5766
5832 5831 5830 5829 5828 5827 5826 5824 5822 5820 5818 5816 5814 5811 5809 5806 5803 5801 5799 5797 5795 5793 5790 5788 5786 5783 5781 5779 5777 5775 5774 5772 5771 5769 5768 5766 5765 5763 5762 5761 5760 5759 5757
5825 5824 5824 5823 5822 5820 5819 5817 5815 5813 5811 5809 5806 5804 5801 5798 5796 5793 5791 5790 5787 5785 5783 5781 5779 5776 5774 5772 5770 5768 5767 5765 5764 5762 5760 5759 5757 5756 5754 5753 5752 5751 5749
5817 5817 5816 5816 5814 5813 5812 5810 5808 5806 5804 5801 5798 5796 5793 5791 5788 5786 5784 5782 5780 5777 5775 5773 5771 5769 5767 5765 5763 5761 5759 5758 5756 5754 5753 5751 5749 5748 5747 5746 5744 5743 5742
5810 5810 5809 5808 5807 5806 5805 5803 5801 5799 5797 5794 5791 5788 5786 5784 5781 5779 5776 5775 5773 5770 5768 5766 5764 5762 5760 5758 5756 5754 5752 5750 5749 5747 5745 5743 5742 5740 5739 5738 5736 5735 5733
5802 5802 5801 5800 5799 5798 5797 5795 5793 5792 5789 5787 5784 5781 5779 5776 5773 5771 5769 5767 5765 5763 5761 5759 5757 5755 5753 5751 5748 5747 5745 5743 5741 5739 5737 5735 5734 5732 5730 5729 5728 5726 5725
5794 5793 5793 5792 5791 5790 5789 5787 5786 5784 5782 5779 5777 5774 5772 5769 5767 5764 5762 5760 5758 5756 5754 5751 5749 5747 5745 5743 5740 5738 5737 5735 5733 5731 5729 5727 5726 5724 5722 5721 5719 5717 5716
5785 5785 5785 5784 5783 5782 5781 5780 5778 5776 5774 5772 5769 5767 5764 5762 5760 5757 5755 5752 5750 5748 5746 5743 5742 5739 5737 5734 5732 5730 5728 5726 5724 5722 5721 5719 5717 5715 5714 5712 5711 5709 5708
5776 5776 5776 5775 5774 5774 5773 5772 5770 5769 5767 5764 5762 5759 5757 5754 5752 5750 5748 5745 5743 5741 5738 5736 5734 5731 5729 5726 5724 5721 5719 5717 5715 5713 5712 5710 5708 5707 5705 5704 5702 5701 5699
5767 5767 5767 5766 5766 5765 5764 5763 5762 5761 5759 5756 5754 5752 5749 5747 5745 5743 5740 5738 5736 5734 5731 5728 5726 5723 5721 5718 5715 5712 5710 5708 5706 5705 5703 5702 5700 5698 5697 5695 5693 5692 5690
5758 5758 5758 5757 5757 5756 5756 5755 5754 5752 5750 5748 5746 5744 5741 5739 5737 5735 5733 5731 5728 5726 5723 5721 5718 5715 5712 5709 5706 5704 5701 5699 5698 5696 5694 5693 5691 5690 5688 5686 5685 5683 5682
5748 5748 5748 5748 5748 5748 5747 5746 5745 5743 5742 5740 5738 5736 5733 5731 5729 5727 5725 5722 5720 5717 5715 5712 5709 5707 5704 5701 5698 5695 5693 5691 5689 5687 5686 5684 5683 5681 5680 5678 5677 5675 5673
5739 5739 5740 5740 5740 5739 5738 5737 5736 5734 5733 5731 5729 5727 5725 5723 5721 5719 5717 5714 5712 5709 5706 5703 5701 5698 5695 5692 5690 5687 5685 5682 5680 5678 5676 5675 5674 5672 5671 5669 5668 5666 5664
5730 5730 5731 5731 5731 5730 5729 5728 5727 5726 5724 5723 5721 5719 5717 5715 5713 5711 5709 5706 5703 5701 5698 5695 5693 5690 5687 5684 5682 5679 5677 5674 5672 5670 5668 5666 5665 5663 5662 5660 5659 5657 5656
5720 5721 5722 5722 5722 5721 5720 5720 5718 5717 5716 5714 5712 5710 5708 5707 5705 5703 5700 5698 5695 5692 5690 5687 5684 5681 5679 5676 5674 5672 5669 5666 5664 5662 5660 5658 5656 5654 5653 5652 5650 5649 5647
5711 5712 5712 5713 5713 5712 5711 5710 5709 5708 5707 5706 5704 5702 5700 5698 5696 5694 5692 5689 5687 5684 5682 5679 5676 5673 5671 5668 5666 5664 5661 5659 5656 5654 5651 5650 5648 5646 5644 5643 5641 5640 5638